This is the latest recevied weather packets stored in our database for station/object KD0SBN. If no packets are shown the sender has not sent any weather packets the latest 10 day(s).
| Time | Temp. | Humidity | Pressure | Rain* | Wind** | Luminosity | Snow |
|---|---|---|---|---|---|---|---|
| 1777547255 | 3.89° C | 94% | 1020.1 hPa | 3.56 mm | - | - | - |
| 1777546952 | 3.89° C | 94% | 1020 hPa | 1.78 mm | - | - | - |
| 1777546649 | 3.89° C | 94% | 1020 hPa | 0 mm | - | - | - |
| 1777546345 | 3.89° C | 94% | 1020 hPa | 0 mm | - | - | - |
| 1777546043 | 3.89° C | 94% | 1019.9 hPa | 1.78 mm | - | - | - |
| 1777545738 | 3.89° C | 94% | 1020.1 hPa | 1.78 mm | - | - | - |
| 1777545436 | 3.89° C | 94% | 1019.9 hPa | 0 mm | - | - | - |
| 1777545133 | 3.89° C | 94% | 1020 hPa | 0 mm | - | - | - |
| 1777544830 | 3.89° C | 94% | 1020 hPa | 0 mm | - | - | - |
| 1777544526 | 3.89° C | 94% | 1019.8 hPa | 2.29 mm | - | - | - |
| 1777544222 | 3.89° C | 94% | 1019.7 hPa | 2.29 mm | - | - | - |
| 1777543920 | 3.89° C | 93% | 1019.8 hPa | 1.78 mm | - | - | - |
| 1777543616 | 3.89° C | 93% | 1020 hPa | 1.78 mm | - | - | - |
| 1777543312 | 3.89° C | 93% | 1019.9 hPa | 1.78 mm | - | - | - |
| 1777543008 | 3.89° C | 93% | 1020 hPa | 3.56 mm | - | - | - |
| 1777542704 | 4.44° C | 93% | 1020 hPa | 5.33 mm | - | - | - |
| 1777542401 | 4.44° C | 93% | 1020.4 hPa | 1.78 mm | - | - | - |
| 1777542097 | 4.44° C | 93% | 1020.1 hPa | 1.78 mm | - | - | - |
| 1777541795 | 4.44° C | 93% | 1020 hPa | 1.78 mm | - | - | - |
| 1777541492 | 4.44° C | 93% | 1020.4 hPa | 4.32 mm | - | - | - |
| 1777541188 | 4.44° C | 93% | 1020.5 hPa | 6.1 mm | - | - | - |
| 1777540884 | 4.44° C | 93% | 1020.5 hPa | 1.78 mm | - | - | - |
| 1777540582 | 4.44° C | 93% | 1020.3 hPa | 0 mm | - | - | - |
| 1777540279 | 4.44° C | 93% | 1020.4 hPa | 0 mm | - | - | - |
| 1777539975 | 4.44° C | 93% | 1020.1 hPa | 1.78 mm | - | - | - |
* Rain latest hour (hover to see other rain measurements)
** Current wind speed in m/s (hover to see current wind gust speed)